Vertical_Velocity
-1 1 1 1 -0 -0 -2 -2 -2 -1 -0 -0 0 -0 2 1 -0 0 0 -1 -2 0 -0 -2 -1 0 -2 -1 2 6 -2 -2 -2 -1 6 -8 -6 3 -2 3 -8 2 6 3 -1
-1 0 1 0 -0 -1 -0 -1 -2 -2 -2 -1 1 1 1 1 1 2 -1 -1 -1 -1 -0 0 -2 -2 -4 -1 3 -1 -5 -5 -7 -6 -3 3 -2 -1 -3 -2 1 -2 6 5 2
-0 -0 1 2 0 -1 0 -2 -2 -1 -2 -1 -0 0 1 1 1 1 -1 1 1 -0 -0 -0 0 -1 -5 -1 1 -2 -1 -1 1 -7 -6 2 -5 2 -3 -5 -0 3 9 -8 3
1 -1 -0 1 1 -2 -1 -1 -1 -1 -0 -0 -1 -1 1 0 0 1 1 -1 0 1 -1 1 4 -3 0 -3 1 1 -1 -3 -5 -1 -8 -3 2 2 -4 7 4 2 1 1 -0
0 1 0 1 2 0 -2 -2 -2 -1 -0 -1 -1 0 0 -0 -1 1 1 -2 -1 -0 -1 -0 5 -6 1 -4 2 2 5 1 3 2 -0 -2 -0 1 -0 1 -0 5 8 1 7
-1 -0 -0 1 1 1 -1 -2 -0 -0 1 -0 -1 -1 -1 2 -0 0 0 2 -1 -1 -2 0 -5 1 2 -1 -3 1 8 -1 -1 0 -4 -3 0 -3 -3 -5 -4 6 10 0 1
0 0 -0 -0 0 1 1 -3 -2 -1 0 0 -1 -2 -1 2 2 -2 1 2 1 1 -1 -1 -3 2 7 2 -1 1 -0 -4 1 1 -0 -1 8 -1 -10 -4 2 4 2 -0 -2
0 0 -1 -0 -0 1 0 -1 -4 1 -0 0 -0 -1 -4 3 1 -2 2 1 1 1 0 -1 -5 -0 3 0 -4 -4 -0 4 1 -5 -6 2 10 8 -8 -8 -3 4 6 2 2
1 1 1 -1 -1 0 -1 -1 -1 -5 -0 -2 -0 0 -1 -1 2 2 -3 0 3 1 2 -2 -0 1 -1 -1 -0 3 -4 -6 2 -9 -7 2 6 7 -7 -10 2 -7 6 6 -6
0 1 0 1 0 1 -1 -0 0 -2 -5 -2 -1 0 -2 -1 0 2 0 -1 1 1 -0 1 -1 -1 3 3 6 11 -0 2 3 -6 -4 -5 6 -10 0 -3 -1 -8 0 6 -4
1 2 1 -0 2 2 -3 -2 -6 -5 1 1 -0 1 -1 -1 0 1 3 3 -0 1 0 -1 -1 5 4 2 3 -5 -5 -1 1 -1 -2 9 3 -3 -7 -14 -7 -4 5 5 9
0 2 1 -1 3 2 -3 -8 0 0 1 2 -2 0 -1 1 3 -0 -4 1 3 3 -1 -3 6 -1 -1 3 5 -2 -2 3 -1 3 -4 -1 -2 4 1 -5 -3 4 3 10 8
0 3 3 -0 1 3 -9 -0 -0 4 -4 4 -4 1 3 -3 2 5 2 2 1 -2 2 3 -2 -4 -1 0 3 -0 -6 0 2 -2 -3 -10 -0 -1 0 -13 0 -4 -5 6 14
0 1 3 1 3 0 -6 5 1 4 -16 7 -2 1 -1 -3 -1 6 -1 -0 2 4 -4 6 -3 1 -3 -3 -0 -0 1 -1 -1 -5 1 -5 -9 7 -1 5 1 -4 -1 5 12
-2 2 4 -2 4 -3 2 6 2 -0 -22 8 0 -2 -1 -8 17 5 -2 -1 1 4 -2 19 2 -0 -4 5 -2 1 -2 1 -5 0 1 1 -10 -1 -2 4 1 12 18 7 7
-2 -1 2 -1 2 -1 3 5 -0 -2 -14 1 6 3 -5 -0 3 -5 -1 -3 3 -2 1 5 -1 -4 5 0 -0 8 1 2 -6 0 -7 2 -0 3 -5 -8 -6 0 2 9 54
-1 -0 1 4 -8 5 7 1 -2 -24 10 8 -7 0 -4 1 3 -2 -1 -3 0 0 1 8 4 -1 3 3 4 6 6 3 -3 1 9 7 5 -16 -2 0 5 -7 -1 -55 -10
-3 2 2 1 -3 5 5 -3 -13 3 10 -0 1 1 4 0 4 -3 -2 0 -1 -3 -2 -2 1 0 0 -0 8 -2 -2 -11 -3 -2 5 5 2 -3 -5 -9 -6 -7 11 14 23
0 2 6 -14 6 8 0 -14 4 15 8 1 4 3 1 -2 2 2 -1 0 6 6 -4 -0 -3 -1 -2 6 6 6 -6 7 -5 -3 -2 2 1 -3 -3 -2 2 7 -13 -13 1
3 0 -4 4 3 6 -5 -5 5 9 8 1 4 -4 5 -4 -3 1 0 -1 5 3 6 7 -3 -1 3 1 -2 -5 10 -2 -3 -0 1 -1 -3 -0 -2 -4 1 1 1 6 3
2 -2 3 -2 3 -1 -12 -0 12 16 3 -8 3 3 1 -1 1 1 6 -4 1 -2 -1 -6 -3 8 9 3 5 -1 2 -1 -1 6 -0 3 0 -1 -6 -6 -3 1 -4 -4 -7
-1 2 1 0 -1 1 6 12 9 5 -5 -10 5 2 -3 2 5 4 -4 -1 -3 2 -2 -1 3 -0 5 4 3 7 1 -6 -4 3 2 -0 0 -0 2 -3 -8 -3 7 -4 4
-2 -0 -1 4 2 4 -1 -2 -1 -0 2 0 2 1 1 2 6 8 -7 2 -3 -5 0 -4 -2 -7 2 7 3 1 -4 -3 7 0 1 5 -1 0 -3 -1 -3 -4 -9 -9 -4
-1 1 -1 4 -2 4 3 -2 7 -4 -2 0 7 -1 2 -1 3 3 -0 -1 2 -0 -8 4 -3 -2 -8 10 8 -1 1 -0 3 3 1 2 -1 -8 -2 -6 -6 -4 -12 -3 -6
0 3 8 7 3 1 5 3 2 -1 -1 2 -1 1 -0 -1 3 -3 2 -1 5 2 2 -1 3 0 -4 -0 0 0 9 2 6 -2 2 -2 -2 6 -2 0 -3 -9 6 -6 5
-0 2 0 -0 4 -0 2 -9 -3 -0 0 -5 7 -8 -2 -0 2 2 2 1 7 3 -1 -3 -2 4 2 -8 2 2 1 2 6 -3 -3 -1 4 -3 -16 -3 -5 8 -0 -9 -3
1 2 -1 0 1 1 4 -2 3 2 3 -2 3 1 1 2 6 7 5 7 1 12 2 2 -5 -0 3 -8 -2 4 3 -1 3 -1 -1 3 3 -1 -4 -6 -2 5 1 -2 -1
Height
5918 5921 5923 5924 5926 5926 5927 5927 5929 5929 5930 5929 5930 5930 5931 5931 5931 5933 5932 5935 5933 5933 5934 5934 5935 5936 5937 5937 5937 5936 5935 5934 5934 5934 5936 5934 5934 5935 5930 5928 5927 5925 5924 5919 5913
5915 5917 5920 5922 5923 5924 5925 5925 5926 5927 5928 5928 5928 5930 5930 5930 5931 5931 5932 5932 5933 5933 5933 5934 5935 5935 5935 5936 5937 5935 5934 5933 5933 5933 5935 5936 5936 5934 5932 5929 5928 5926 5925 5920 5913
5910 5913 5916 5918 5920 5921 5922 5923 5924 5925 5926 5927 5928 5929 5929 5929 5930 5930 5929 5931 5931 5932 5933 5933 5934 5936 5936 5936 5936 5935 5933 5933 5931 5930 5934 5935 5936 5934 5930 5928 5928 5928 5926 5920 5915
5905 5908 5912 5914 5916 5917 5919 5920 5921 5922 5924 5926 5926 5927 5928 5928 5930 5929 5928 5928 5930 5931 5932 5934 5934 5936 5935 5934 5935 5937 5934 5933 5930 5932 5932 5933 5935 5934 5932 5931 5931 5930 5926 5920 5914
5899 5903 5906 5910 5912 5913 5915 5917 5918 5919 5921 5922 5923 5925 5926 5926 5926 5927 5927 5927 5928 5930 5931 5932 5933 5933 5933 5933 5935 5936 5937 5935 5934 5934 5933 5932 5934 5933 5933 5930 5931 5931 5927 5921 5916
5894 5897 5901 5904 5907 5908 5910 5912 5913 5915 5917 5919 5920 5922 5923 5925 5924 5925 5926 5926 5926 5927 5929 5930 5929 5930 5931 5933 5934 5935 5938 5935 5934 5933 5932 5933 5932 5932 5933 5931 5932 5931 5926 5920 5915
5888 5891 5894 5898 5901 5904 5905 5906 5908 5910 5912 5914 5916 5917 5919 5923 5922 5923 5923 5924 5923 5923 5925 5927 5926 5929 5930 5931 5932 5931 5934 5934 5933 5932 5931 5932 5934 5930 5931 5932 5932 5930 5926 5920 5916
5881 5885 5888 5891 5895 5898 5900 5901 5902 5906 5907 5909 5911 5912 5914 5918 5917 5919 5920 5920 5921 5921 5922 5923 5923 5925 5929 5930 5931 5930 5933 5934 5933 5930 5929 5930 5934 5929 5931 5931 5931 5928 5925 5921 5916
5874 5878 5882 5884 5888 5892 5895 5896 5898 5901 5902 5903 5907 5908 5910 5913 5915 5916 5916 5917 5918 5918 5918 5919 5921 5923 5925 5926 5929 5929 5932 5933 5934 5931 5930 5928 5932 5930 5928 5930 5931 5927 5925 5922 5917
5867 5871 5874 5878 5882 5886 5888 5891 5892 5895 5897 5899 5901 5905 5907 5909 5910 5913 5913 5913 5915 5916 5916 5915 5919 5921 5921 5922 5926 5928 5930 5932 5932 5930 5930 5931 5933 5929 5927 5927 5929 5926 5925 5922 5918
5858 5862 5867 5870 5875 5879 5881 5884 5886 5888 5891 5894 5897 5899 5901 5903 5905 5907 5909 5911 5912 5913 5913 5913 5916 5918 5917 5921 5922 5924 5925 5928 5928 5927 5927 5931 5929 5928 5927 5925 5927 5925 5923 5921 5918
5849 5854 5858 5862 5866 5870 5872 5876 5879 5883 5888 5890 5891 5895 5896 5898 5902 5902 5904 5907 5908 5909 5909 5913 5914 5912 5913 5916 5918 5920 5922 5926 5927 5926 5925 5925 5924 5925 5923 5923 5924 5923 5920 5919 5917
5840 5844 5849 5853 5858 5862 5864 5870 5872 5876 5879 5885 5885 5889 5893 5892 5897 5899 5900 5901 5904 5905 5907 5909 5908 5908 5911 5912 5914 5916 5917 5922 5924 5924 5923 5922 5922 5922 5921 5919 5920 5921 5919 5917 5917
5831 5836 5840 5844 5851 5853 5858 5863 5867 5870 5869 5877 5880 5882 5887 5886 5890 5894 5894 5897 5899 5901 5901 5905 5904 5906 5906 5909 5912 5913 5915 5917 5919 5919 5920 5920 5920 5919 5919 5919 5919 5919 5918 5917 5915
5821 5826 5831 5836 5841 5846 5853 5857 5860 5862 5862 5874 5874 5876 5880 5881 5890 5888 5889 5891 5895 5896 5897 5904 5901 5902 5904 5908 5908 5911 5911 5912 5914 5916 5916 5917 5917 5915 5915 5915 5918 5917 5916 5913 5910
5811 5816 5821 5826 5832 5839 5844 5848 5852 5855 5858 5865 5868 5870 5873 5878 5881 5882 5884 5887 5890 5890 5894 5897 5897 5897 5902 5904 5905 5907 5908 5909 5909 5910 5911 5913 5913 5912 5911 5912 5911 5910 5908 5898 5891
5802 5808 5813 5818 5823 5830 5835 5839 5843 5846 5856 5859 5861 5865 5867 5871 5874 5876 5877 5881 5884 5887 5891 5892 5894 5896 5898 5900 5901 5902 5905 5906 5906 5906 5907 5910 5909 5907 5907 5908 5907 5906 5905 5880 5889
5794 5799 5804 5808 5815 5821 5826 5830 5835 5841 5848 5852 5857 5860 5863 5865 5868 5870 5872 5875 5879 5882 5885 5887 5891 5893 5894 5896 5898 5899 5900 5900 5900 5902 5905 5906 5904 5905 5905 5906 5906 5906 5906 5902 5901
5787 5791 5795 5800 5808 5813 5817 5821 5828 5834 5842 5846 5851 5853 5857 5859 5862 5864 5866 5871 5876 5878 5880 5882 5888 5887 5889 5893 5895 5897 5897 5898 5896 5898 5899 5901 5901 5902 5903 5903 5905 5905 5904 5903 5903
5779 5783 5788 5795 5798 5804 5808 5815 5819 5828 5834 5840 5843 5846 5851 5853 5857 5859 5861 5866 5869 5869 5872 5876 5881 5882 5885 5886 5890 5891 5894 5893 5893 5894 5895 5896 5896 5899 5901 5902 5903 5902 5903 5902 5900
5772 5777 5781 5785 5790 5795 5801 5806 5814 5822 5825 5833 5836 5840 5845 5849 5852 5855 5857 5859 5861 5863 5866 5868 5872 5878 5881 5882 5887 5888 5890 5890 5890 5891 5891 5893 5894 5896 5898 5898 5898 5898 5899 5899 5898
5766 5770 5774 5777 5784 5789 5794 5799 5805 5812 5816 5822 5828 5833 5838 5842 5847 5850 5852 5854 5857 5861 5862 5865 5867 5871 5875 5879 5881 5883 5884 5884 5884 5886 5888 5889 5890 5892 5894 5895 5895 5895 5894 5895 5896
5761 5765 5769 5771 5777 5781 5786 5791 5797 5804 5808 5814 5819 5823 5830 5835 5841 5845 5847 5850 5852 5855 5859 5859 5861 5865 5869 5874 5875 5877 5878 5880 5881 5882 5883 5884 5886 5887 5889 5891 5891 5892 5893 5893 5891
5755 5759 5763 5767 5770 5775 5780 5786 5792 5797 5802 5808 5813 5815 5822 5827 5833 5839 5843 5845 5847 5850 5854 5857 5857 5861 5866 5869 5871 5873 5875 5876 5877 5879 5879 5880 5881 5883 5884 5885 5886 5887 5888 5888 5887
5750 5755 5760 5764 5767 5771 5777 5782 5786 5791 5796 5801 5804 5808 5814 5820 5826 5831 5838 5840 5841 5845 5848 5851 5853 5856 5860 5862 5863 5867 5870 5872 5873 5874 5875 5876 5877 5879 5880 5882 5883 5883 5885 5886 5885
5747 5751 5755 5756 5762 5767 5773 5777 5783 5787 5792 5795 5799 5801 5806 5813 5819 5823 5829 5835 5836 5839 5842 5845 5848 5851 5855 5858 5859 5861 5866 5867 5867 5869 5870 5871 5873 5872 5875 5877 5879 5880 5881 5882 5881
5745 5748 5749 5752 5758 5763 5769 5773 5778 5783 5787 5790 5792 5795 5799 5805 5811 5816 5822 5829 5831 5834 5836 5838 5841 5845 5850 5853 5853 5857 5858 5861 5863 5864 5864 5866 5867 5868 5870 5872 5873 5872 5874 5874 5875